Location: Monteux
(44.0348°N, 4.9972°E)
Time: 17:28:10
(UTC+00:00)

Cosmos 1933 Rocket - Pass Details

Date: 30 November 2020
Orbit: 605 x 631 km, 82.5° (Epoch: 23 January)

Event Time Altitude Azimuth Distance (km) Brightness Sun altitude
Rises 17:19:59 0° 357° (N) 2,935 6.9 -13.4°
Reaches altitude 10° 17:22:20 10° 4° (N) 2,022 6.0 -13.8°
Maximum altitude 17:26:38 45° 77° (ENE) 860 3.8 -14.6°
Drops below altitude 10° 17:30:54 10° 151° (SSE) 2,000 6.0 -15.3°
Sets 17:33:12 0° 157° (SSE) 2,900 6.9 -15.7°
